ASTRA 1L

Last updated on Wed Sep 17 2025 00:02:46 GMT+0000 (Coordinated Universal Time)

1 31306U 07016A 25259.58754537 .00000101 00000+0 00000+0 0 9994 2 31306 0.6106 82.6260 0003460 101.1972 42.8713 1.00269267 42246
UTC large
Height (km)
Speed (km/s)
/
Latitude / Longitude
Inclination (degrees)
Orbital Period (minutes)
Azimuth
Elevation
Range (km)
Doppler Factor

Next 0 passes for location: London (51.5072 / 0.1276)

Sorry there are no passes over London.